EW2817 Weather Reports


Display with metric or nautical units.
time (UTC)temp
F
wind
direction
speed
MPH
gust
MPH
rain 1hr
in
rain 24hr
in
rain mn
in
humidity
%
barometer
mb
20260510123516 62 0 0.0 0.0 0.00 0.00 0.00 95 991.6
20260510120516 60 0 0.0 0.0 0.00 0.00 0.00 95 991.3
20260510115014 60 0 0.0 0.0 0.00 0.00 0.00 95 991.3
20260510113515 60 0 0.0 0.0 0.00 0.00 0.00 95 991.1
20260510112008 60 0 0.0 0.0 0.00 0.00 0.00 95 990.8
20260510110506 60 0 0.0 0.0 0.00 0.00 0.00 95 990.4
20260510105006 60 0 0.0 0.0 0.00 0.00 0.00 95 990.1
20260510103504 60 0 0.0 0.0 0.00 0.00 0.00 95 989.8
20260510102002 60 0 0.0 0.0 0.00 0.00 0.00 95 989.6
20260510100502 60 0 0.0 0.0 0.00 0.00 0.00 95 989.6
20260510095001 60 0 0.0 0.0 0.00 0.00 0.00 94 989.4
20260510093502 60 0 0.0 0.0 0.00 0.00 0.00 94 989.2
20260510085002 61 0 0.0 0.0 0.00 0.00 0.00 94 988.9
20260510083502 61 0 0.0 0.0 0.00 0.00 0.00 94 988.8
20260510081959 61 0 0.0 0.0 0.00 0.00 0.00 94 988.8
20260510074955 61 0 0.0 0.0 0.00 0.00 0.00 94 988.8
20260510073453 62 0 0.0 0.0 0.00 0.00 0.00 94 988.5
20260510071954 62 0 0.0 0.0 0.00 0.00 0.00 94 988.3
20260510070453 62 0 0.0 0.0 0.00 0.00 0.00 93 988.3
20260510064951 62 0 0.0 0.0 0.00 0.00 0.00 93 988.4
20260510063450 62 0 0.0 0.0 0.00 0.00 0.00 93 988.5
20260510054948 64 0 0.0 0.0 0.00 0.00 0.00 90 988.7
20260510053447 64 0 0.0 0.0 0.00 0.00 0.00 90 988.8
20260510051945 64 0 0.0 0.0 0.00 0.00 0.00 90 988.8
20260510050443 64 0 0.0 0.0 0.00 0.00 0.00 90 989.0
20260510044943 65 0 0.0 0.0 0.00 0.00 0.00 90 989.0
20260510043437 65 0 0.0 0.0 0.00 0.00 0.00 90 988.9
20260510041936 64 0 0.0 0.0 0.00 0.00 0.00 91 988.8
20260510034931 64 0 0.0 0.0 0.00 0.00 0.00 90 988.9
20260510031929 64 0 0.0 0.0 0.00 0.00 0.00 90 988.9
20260510030427 65 0 0.0 0.0 0.00 0.00 0.00 89 988.8
20260510023424 65 0 0.0 0.0 0.00 0.00 0.00 88 988.6
20260510021923 66 0 0.0 0.0 0.00 0.00 0.00 88 988.7
20260510020422 66 0 0.0 0.0 0.00 0.00 0.00 87 988.6
20260510013420 66 0 0.0 0.0 0.00 0.00 0.00 86 988.0
20260510004918 68 0 0.0 0.0 0.00 0.00 0.00 82 987.5
20260510003417 69 0 0.0 0.0 0.00 0.00 0.00 81 987.5
20260510001914 69 0 0.0 0.0 0.00 0.00 0.00 79 987.4
20260510000412 70 0 0.0 0.0 0.00 0.00 0.00 78 987.3
20260509234906 70 0 0.0 0.0 0.00 0.00 0.00 77 987.1
20260509231904 71 0 0.0 0.0 0.00 0.00 0.00 75 986.8
20260509230403 72 0 0.0 0.0 0.00 0.00 0.00 74 986.6
20260509224904 72 0 0.0 0.0 0.00 0.00 0.00 72 986.5
20260509221901 72 0 0.0 0.0 0.00 0.00 0.00 73 986.6
20260509220357 72 0 0.0 0.0 0.00 0.00 0.00 71 986.5
20260509214858 72 0 0.0 0.0 0.00 0.00 0.00 72 986.5
20260509213355 73 0 0.0 0.0 0.00 0.00 0.00 72 986.5
20260509211855 73 0 0.0 0.0 0.00 0.00 0.00 70 986.5
20260509210356 73 0 0.0 0.0 0.00 0.00 0.00 71 986.2
20260509204853 73 0 0.0 0.0 0.00 0.00 0.00 68 986.5
20260509201850 72 0 0.0 0.0 0.00 0.00 0.00 69 986.5
20260509200349 73 0 0.0 0.0 0.00 0.00 0.00 71 986.6
20260509194849 72 0 0.0 0.0 0.00 0.00 0.00 69 986.7
20260509193349 73 0 0.0 0.0 0.00 0.00 0.00 68 986.9
20260509191849 73 0 0.0 0.0 0.00 0.00 0.00 68 986.9
20260509190349 73 0 0.0 0.0 0.00 0.00 0.00 68 987.0
20260509184849 73 0 0.0 0.0 0.00 0.00 0.00 68 987.1
20260509183347 73 0 0.0 0.0 0.00 0.00 0.00 66 987.2
20260509181845 75 0 0.0 0.0 0.00 0.00 0.00 62 987.2
20260509180346 76 0 0.0 0.0 0.00 0.00 0.00 58 987.4
20260509174843 75 0 0.0 0.0 0.00 0.00 0.00 61 987.6
20260509173341 74 0 0.0 0.0 0.00 0.00 0.00 62 987.6
20260509170339 73 0 0.0 0.0 0.00 0.00 0.00 63 988.2
20260509163339 73 0 0.0 0.0 0.00 0.00 0.00 63 988.6
20260509161837 72 0 0.0 0.0 0.00 0.00 0.00 65 988.5
20260509160332 72 0 0.0 0.0 0.00 0.00 0.00 65 988.6
20260509154831 72 0 0.0 0.0 0.00 0.00 0.00 66 988.5
20260509150326 69 0 0.0 0.0 0.00 0.00 0.00 70 988.6
20260509143325 66 0 0.0 0.0 0.00 0.00 0.00 76 989.3
20260509141824 65 0 0.0 0.0 0.00 0.00 0.00 79 989.3
20260509140324 64 0 0.0 0.0 0.00 0.00 0.00 82 989.8
20260509134825 63 0 0.0 0.0 0.00 0.00 0.00 84 990.3
20260509133324 61 0 0.0 0.0 0.00 0.00 0.00 89 990.2
20260509131819 59 0 0.0 0.0 0.00 0.00 0.00 92 990.3
20260509130316 58 0 0.0 0.0 0.00 0.00 0.00 93 990.2